Location: ASU Dark Sky Observatory
(36.2504°N, 81.4125°W)
Time: 01:32:50
(UTC-04:00)

Amateur Radio Satellites - All Passes

Search period start: 18 April 2014 01:02
Search period end: 19 April 2014 01:02
Location: ASU Dark Sky Observatory, 36.2504°N, 81.4125°W

Satellite Date Start Highest point End Downlink Frequencies (MHz)
Time Altitude Azimuth
Sapphire 18 Apr 01:21:36 01:26:52 58° 113° (ESE) 01:32:12 437.095 MHz 1200 baud AX-25 AFSK
Oscar 19 18 Apr 01:51:21 01:53:58 14° 92° (E) 01:56:35 437.125 CW, 437.150 USB
KITSAT 1 18 Apr 01:55:57 01:58:26 12° 99° (E) 02:00:55 435.175 FM
Oscar 16 18 Apr 01:58:32 02:02:03 18° 93° (E) 02:05:33 437.025 USB, Beacon 2401.1428
PCSat 18 Apr 02:06:43 02:11:59 52° 300° (WNW) 02:17:17 145.825 MHz
SO-50 18 Apr 02:09:43 02:14:20 64° 243° (WSW) 02:19:01 436.795 FM
OPAL 18 Apr 02:12:09 02:15:42 20° 63° (ENE) 02:19:18 ?
Uribyol 2 18 Apr 02:30:28 02:34:04 19° 94° (E) 02:37:39 436.500 FM
UOSAT-12 18 Apr 03:02:56 03:06:54 26° 51° (NE) 03:10:50 437.025 FM, 437.400 FM
Sapphire 18 Apr 03:06:51 03:10:41 19° 310° (NW) 03:14:32 437.095 MHz 1200 baud AX-25 AFSK
AO-27 18 Apr 03:08:43 03:13:40 44° 99° (E) 03:18:35 436.795 MHz FM
Oscar 10/S400 18 Apr 03:09:05 03:27:31 37° 137° (SE) 04:23:31 145.825 - 145.975 CW/USB, Beacon 145.810 USB
ITAMSAT 1 18 Apr 03:19:47 03:24:52 56° 101° (E) 03:29:56 435.822 SSB
Oscar 19 18 Apr 03:28:32 03:33:40 60° 286° (WNW) 03:38:46 437.125 CW, 437.150 USB
Oscar 16 18 Apr 03:36:38 03:41:36 47° 288° (WNW) 03:46:33 437.025 USB, Beacon 2401.1428
TMSAT-1 18 Apr 03:41:38 03:45:19 19° 93° (E) 03:48:59 436.925 FM
AO-Echo 18 Apr 03:44:12 03:49:00 81° 103° (ESE) 03:53:42 ?
KITSAT 1 18 Apr 03:44:24 03:52:28 76° 115° (ESE) 04:00:35 435.175 FM
OPAL 18 Apr 03:49:28 03:54:13 44° 259° (W) 03:59:04 ?
Uribyol 2 18 Apr 04:08:48 04:13:43 45° 288° (WNW) 04:18:37 436.500 FM
JAS-1B 18 Apr 04:18:22 04:22:22 19° 95° (E) 04:26:30 435.800 - 435.900 CW/SSB
Gurwin Techsat 1B 18 Apr 04:30:52 04:36:13 84° 103° (ESE) 04:41:31 435.225 FM
UOSAT-12 18 Apr 04:42:51 04:47:04 33° 247° (WSW) 04:51:14 437.025 FM, 437.400 FM
AO-27 18 Apr 04:49:08 04:52:49 20° 294° (WNW) 04:56:31 436.795 MHz FM
ITAMSAT 1 18 Apr 05:00:47 05:03:52 16° 296° (WNW) 05:06:57 435.822 SSB
AO-7 18 Apr 05:01:05 05:08:11 31° 97° (E) 05:15:15 29.400 - 29.500 MHz
TMSAT-1 18 Apr 05:20:23 05:25:26 46° 288° (WNW) 05:30:27 436.925 FM
Uosat F 18 Apr 05:39:36 05:44:37 82° 285° (WNW) 05:49:36 435.120 FM
KITSAT 1 18 Apr 05:42:13 05:48:39 25° 315° (NW) 05:55:08 435.175 FM
JAS-1B 18 Apr 06:07:57 06:13:18 44° 289° (WNW) 06:18:50 435.800 - 435.900 CW/SSB
Gurwin Techsat 1B 18 Apr 06:13:54 06:15:24 11° 299° (WNW) 06:16:55 435.225 FM
STRAND 1 18 Apr 06:25:40 06:29:44 25° 67° (ENE) 06:33:49 ?
RS-15 18 Apr 06:42:47 06:52:56 39° 107° (ESE) 07:02:44 29.354 - 29.394 USB, Beacon 29.352 USB
AO-7 18 Apr 06:53:12 07:01:11 54° 293° (WNW) 07:09:11 29.400 - 29.500 MHz
JAS-2 18 Apr 07:40:15 07:44:41 25° 97° (E) 07:49:26 435.800 - 435.900 CW/SSB, 435.910 FM
Hamsat 18 Apr 07:50:20 07:54:41 75° 283° (WNW) 07:59:01 145.90 MHz
STRAND 1 18 Apr 08:04:05 08:08:43 35° 262° (W) 08:13:23 ?
MaSat-1 18 Apr 08:07:00 08:09:59 54° 66° (ENE) 08:13:31 437.345 MHz
SO-67 18 Apr 08:40:27 08:43:58 81° 101° (ESE) 08:47:27 435.3500 MHz FM
RS-15 18 Apr 08:53:47 09:04:50 56° 306° (NW) 09:15:36 29.354 - 29.394 USB, Beacon 29.352 USB
AO-40 18 Apr 08:59:15 10:23:13 23° 230° (SW) 13:15:32 Beacon 2401.320
PANSAT 18 Apr 09:03:02 09:04:15 11° 160° (SSE) 09:05:27 not established
HO-68 18 Apr 09:10:59 09:14:44 15° 91° (E) 09:18:27 435.675 MHz FM
PCSat 18 Apr 09:17:04 09:18:09 11° 43° (NE) 09:19:13 145.825 MHz
JAS-2 18 Apr 09:24:53 09:29:48 37° 289° (WNW) 09:35:09 435.800 - 435.900 CW/SSB, 435.910 FM
Sapphire 18 Apr 10:12:36 10:17:13 28° 54° (NE) 10:21:48 437.095 MHz 1200 baud AX-25 AFSK
PANSAT 18 Apr 10:40:48 10:43:52 22° 172° (S) 10:46:56 not established
Saudisat 1A 18 Apr 10:43:08 10:44:48 12° 108° (ESE) 10:46:29 436.775 MHz
FUNcube-1 18 Apr 10:46:43 10:46:47 10° 92° (E) 10:46:51 145.950 - 145.970 MHz USB
HO-68 18 Apr 10:55:55 11:03:08 84° 287° (WNW) 11:10:19 435.675 MHz FM
PCSat 18 Apr 10:57:07 11:02:33 71° 62° (ENE) 11:07:56 145.825 MHz
Oscar 11 18 Apr 10:57:08 11:01:23 51° 100° (E) 11:05:38 145.825 FM, Beacon 2401.500 USB
RS-15 18 Apr 11:13:27 11:20:22 18° 335° (NNW) 11:27:16 29.354 - 29.394 USB, Beacon 29.352 USB
KITSAT 1 18 Apr 11:41:20 11:47:47 25° 45° (NE) 11:54:10 435.175 FM
Sapphire 18 Apr 11:55:44 12:00:41 37° 250° (WSW) 12:05:36 437.095 MHz 1200 baud AX-25 AFSK
FUNcube-1 18 Apr 12:19:19 12:23:29 57° 285° (WNW) 12:27:44 145.950 - 145.970 MHz USB
Saudisat 1A 18 Apr 12:19:28 12:23:52 60° 302° (WNW) 12:28:18 436.775 MHz
PANSAT 18 Apr 12:20:27 12:23:37 24° 185° (S) 12:26:47 not established
Oscar 11 18 Apr 12:35:11 12:37:07 13° 294° (WNW) 12:39:03 145.825 FM, Beacon 2401.500 USB
PCSat 18 Apr 12:42:54 12:45:17 13° 257° (WSW) 12:47:40 145.825 MHz
HO-68 18 Apr 12:46:08 12:49:45 15° 304° (NW) 12:53:24 435.675 MHz FM
Oscar 19 18 Apr 13:05:53 13:09:01 17° 64° (ENE) 13:12:10 437.125 CW, 437.150 USB
Oscar 16 18 Apr 13:13:12 13:16:58 21° 66° (ENE) 13:20:45 437.025 USB, Beacon 2401.1428
RS-15 18 Apr 13:34:07 13:39:24 14° 14° (NNE) 13:44:40 29.354 - 29.394 USB, Beacon 29.352 USB
KITSAT 1 18 Apr 13:35:52 13:43:58 76° 245° (WSW) 13:51:59 435.175 FM
Uribyol 2 18 Apr 13:45:59 13:49:56 23° 67° (ENE) 13:53:54 436.500 FM
PANSAT 18 Apr 14:01:12 14:03:17 14° 197° (SSW) 14:05:22 not established
Gurwin Techsat 1B 18 Apr 14:13:37 14:15:26 12° 61° (ENE) 14:17:15 435.225 FM
AO-27 18 Apr 14:24:17 14:29:18 52° 72° (ENE) 14:34:20 436.795 MHz FM
ITAMSAT 1 18 Apr 14:35:11 14:40:19 66° 74° (ENE) 14:45:27 435.822 SSB
Oscar 19 18 Apr 14:42:52 14:47:52 54° 260° (W) 14:52:56 437.125 CW, 437.150 USB
Oscar 16 18 Apr 14:51:11 14:56:00 41° 261° (W) 15:00:52 437.025 USB, Beacon 2401.1428
AO-Echo 18 Apr 14:53:55 14:59:11 80° 76° (ENE) 15:04:22 ?
TMSAT-1 18 Apr 14:59:55 15:04:03 24° 67° (ENE) 15:08:11 436.925 FM
ISS 18 Apr 15:00:12 15:02:01 14° 128° (SE) 15:03:51 145.800 FM
JAS-1B 18 Apr 15:00:59 15:06:15 20° 64° (ENE) 15:11:00 435.800 - 435.900 CW/SSB
Uosat F 18 Apr 15:15:41 15:17:08 11° 62° (ENE) 15:18:34 435.120 FM
Uribyol 2 18 Apr 15:24:22 15:29:09 38° 262° (W) 15:33:57 436.500 FM
KITSAT 1 18 Apr 15:35:37 15:37:59 12° 261° (W) 15:40:21 435.175 FM
RS-15 18 Apr 15:46:13 15:56:15 39° 46° (NE) 16:06:25 29.354 - 29.394 USB, Beacon 29.352 USB
Gurwin Techsat 1B 18 Apr 15:49:21 15:54:39 81° 257° (WSW) 16:00:00 435.225 FM
AO-7 18 Apr 15:57:30 16:04:40 34° 61° (ENE) 16:11:50 29.400 - 29.500 MHz
OPAL 18 Apr 16:01:35 16:06:45 61° 103° (ESE) 16:11:54 ?
AO-27 18 Apr 16:05:55 16:09:05 16° 267° (W) 16:12:16 436.795 MHz FM
ITAMSAT 1 18 Apr 16:18:03 16:20:13 13° 268° (W) 16:22:23 435.822 SSB
SO-50 18 Apr 16:22:13 16:26:41 79° 119° (ESE) 16:31:11 436.795 FM
ISS 18 Apr 16:35:12 16:38:27 48° 322° (NW) 16:41:43 145.800 FM
AO-Echo 18 Apr 16:37:45 16:38:25 10° 270° (W) 16:39:05 ?
TMSAT-1 18 Apr 16:38:49 16:43:43 38° 262° (W) 16:48:38 436.925 FM
JAS-1B 18 Apr 16:47:51 16:56:22 76° 256° (WSW) 17:03:28 435.800 - 435.900 CW/SSB
Uosat F 18 Apr 16:50:11 16:55:13 79° 257° (WSW) 17:00:16 435.120 FM
UOSAT-12 18 Apr 17:14:04 17:15:58 13° 107° (ESE) 17:17:53 437.025 FM, 437.400 FM
OPAL 18 Apr 17:42:02 17:45:06 16° 298° (WNW) 17:48:10 ?
AO-7 18 Apr 17:49:11 17:57:07 50° 258° (WSW) 18:05:06 29.400 - 29.500 MHz
RS-15 18 Apr 17:58:22 18:09:02 61° 248° (WSW) 18:20:04 29.354 - 29.394 USB, Beacon 29.352 USB
SO-50 18 Apr 18:05:59 18:07:49 12° 316° (NW) 18:09:39 436.795 FM
ISS 18 Apr 18:15:19 18:15:52 10° 340° (NNW) 18:16:24 145.800 FM
Hamsat 18 Apr 18:41:12 18:45:16 54° 75° (ENE) 18:49:24 145.90 MHz
JAS-1B 18 Apr 18:45:36 18:47:24 11° 269° (W) 18:49:10 435.800 - 435.900 CW/SSB
UOSAT-12 18 Apr 18:51:04 18:55:33 59° 302° (WNW) 19:00:08 437.025 FM, 437.400 FM
SO-67 18 Apr 19:12:40 19:15:04 18° 70° (ENE) 19:17:28 435.3500 MHz FM
JAS-2 18 Apr 19:33:57 19:39:54 65° 74° (ENE) 19:45:17 435.800 - 435.900 CW/SSB, 435.910 FM
STRAND 1 18 Apr 20:16:48 20:21:54 84° 284° (WNW) 20:26:59 ?
Hamsat 18 Apr 20:21:13 20:21:34 10° 269° (W) 20:21:56 145.90 MHz
SO-67 18 Apr 20:45:21 20:48:04 21° 265° (W) 20:50:47 435.3500 MHz FM
Saudisat 1A 18 Apr 20:48:52 20:53:09 49° 57° (ENE) 20:57:23 436.775 MHz
HO-68 18 Apr 21:21:16 21:28:11 57° 69° (ENE) 21:35:08 435.675 MHz FM
JAS-2 18 Apr 21:22:16 21:25:16 14° 266° (W) 21:28:08 435.800 - 435.900 CW/SSB, 435.910 FM
ISS 18 Apr 21:30:57 21:32:10 12° 22° (NNE) 21:33:24 145.800 FM
Oscar 11 18 Apr 21:50:03 21:53:45 29° 71° (ENE) 21:57:29 145.825 FM, Beacon 2401.500 USB
MaSat-1 18 Apr 22:08:18 22:11:23 56° 112° (ESE) 22:14:03 437.345 MHz
Saudisat 1A 18 Apr 22:30:01 22:32:18 14° 252° (WSW) 22:34:34 436.775 MHz
ISS 18 Apr 23:06:10 23:09:30 61° 39° (NE) 23:12:49 145.800 FM
HO-68 18 Apr 23:10:39 23:16:10 24° 265° (W) 23:21:45 435.675 MHz FM
FUNcube-1 18 Apr 23:13:16 23:17:30 81° 77° (ENE) 23:21:41 145.950 - 145.970 MHz USB
Oscar 11 18 Apr 23:26:43 23:29:56 20° 265° (W) 23:33:10 145.825 FM, Beacon 2401.500 USB
PCSat 18 Apr 23:56:34 23:58:44 12° 103° (ESE) 00:00:54 145.825 MHz
ISS 19 Apr 00:44:48 00:45:50 11° 234° (SW) 00:46:52 145.800 FM
Sapphire 19 Apr 00:51:32 00:56:33 41° 110° (ESE) 01:01:37 437.095 MHz 1200 baud AX-25 AFSK
